{"data":{"norad_id":64115,"epoch":"2026-09-20T07:43:42.575520Z","epoch_age_seconds":155725,"freshness":"FRESH","line1":"1 64115U 25110V   26263.32202055  .00033592  00000+0  73640-3 0  9998","line2":"2 64115  53.1582 196.1922 0006618  75.0330 285.1409 15.43782313 75774","mean_motion":15.43782313,"eccentricity":0.0006618,"inclination_deg":53.1582,"raan_deg":196.1922,"arg_perigee_deg":75.033,"mean_anomaly_deg":285.1409,"bstar":0.0007364,"rev_number":7577,"period_min":93.277399791016,"perigee_km":430.44944947628,"apogee_km":439.46726248946,"semimajor_km":6813.0953559829,"source":"CELESTRAK","updated_at":"2026-09-21T09:00:35.230493Z"}}